M I D A S
Marine Information and Data Acquisition System
Tripno 1001 of the Zeeleeuw from 2005-08-04 09:37:51 to 2005-08-04 16:00:00
Back to CruiseResearch ActivitiesStationsMapUnderway DataData graphs

EquipmentUnitsComments
TimeDGPSUTC
LatitudeDGPSDM.mWGS84
LongitudeDGPSDM.mWGS84
SpeedMeteo Stationm/sRelative wind speed
DirectionMeteo StationdegRelative wind direction
TemperatureMeteo Stationdeg CelciusAir temperature
PressureMeteo StationPaAtmospheric pressure
HumidityMeteo Station%Relative humidity
Missing or incorrect values are displayed as -999
Metereological data collected by the RV Zeeleeuw from 2005-08-04 09:39:46 to 2005-08-16 12:13:05
                                                                                    Next 1000 lines
Time Latitude Longitude Speed Direction Temperature Pressure Humidity
2005-08-04 09:39:57 51°13.597 2°56.092 4 189 18 102560 65
2005-08-04 09:40:02 51°13.598 2°56.089 3.5 189 18 102560 65
2005-08-04 09:40:06 51°13.599 2°56.085 4.6 189 17.9 102560 65
2005-08-04 09:40:11 51°13.601 2°56.079 3.7 188 17.9 102560 65
2005-08-04 09:40:18 51°13.603 2°56.072 5.1 199 17.9 102560 65
2005-08-04 09:40:22 51°13.605 2°56.067 5.3 197 17.9 102560 65
2005-08-04 09:40:27 51°13.607 2°56.06 5.9 201 17.9 102560 67
2005-08-04 09:40:31 51°13.609 2°56.054 5.1 209 17.9 102560 67
2005-08-04 09:40:37 51°13.611 2°56.046 6 206 18 102560 68
2005-08-04 09:40:42 51°13.614 2°56.037 7 212 18 102560 68
2005-08-04 09:40:47 51°13.616 2°56.03 6 195 18 102560 66
2005-08-04 09:40:51 51°13.618 2°56.023 6.6 209 18 102560 66
2005-08-04 09:40:57 51°13.621 2°56.013 6.4 204 18 102560 65
2005-08-04 09:41:03 51°13.624 2°56.004 8.3 224 18 102560 65
2005-08-04 09:41:07 51°13.626 2°55.996 5.9 209 18 102560 65
2005-08-04 09:41:12 51°13.629 2°55.988 8.2 206 18 102560 65
2005-08-04 09:41:17 51°13.632 2°55.979 6.6 202 18 102560 65
2005-08-04 09:41:22 51°13.635 2°55.97 6.2 207 18 102560 65
2005-08-04 09:41:27 51°13.638 2°55.961 6.7 206 18 102560 65
2005-08-04 09:41:31 51°13.641 2°55.954 6.3 203 18 102560 65
2005-08-04 09:41:37 51°13.644 2°55.944 7 197 17.9 102570 64
2005-08-04 09:41:42 51°13.647 2°55.936 5.5 201 17.9 102570 64
2005-08-04 09:41:46 51°13.65 2°55.929 7.9 201 17.9 102560 64
2005-08-04 09:41:52 51°13.653 2°55.917 6.1 202 17.9 102560 64
2005-08-04 09:41:57 51°13.656 2°55.909 5.4 192 17.8 102560 65
2005-08-04 09:42:02 51°13.659 2°55.9 5.5 200 17.8 102560 65
2005-08-04 09:42:07 51°13.662 2°55.891 8 208 17.7 102560 65
2005-08-04 09:42:12 51°13.664 2°55.882 7.8 217 17.7 102560 65
2005-08-04 09:42:17 51°13.667 2°55.874 8.4 221 17.7 102560 66
2005-08-04 09:42:22 51°13.669 2°55.865 8.7 222 17.7 102560 66
2005-08-04 09:42:27 51°13.671 2°55.857 8.5 220 17.7 102560 66
2005-08-04 09:42:31 51°13.672 2°55.851 6.6 221 17.7 102560 66
2005-08-04 09:42:37 51°13.674 2°55.843 7.7 224 17.7 102570 67
2005-08-04 09:42:42 51°13.675 2°55.836 7.1 231 17.7 102570 67
2005-08-04 09:42:46 51°13.676 2°55.83 7.4 231 17.7 102570 66
2005-08-04 09:42:51 51°13.677 2°55.822 7.6 226 17.7 102570 66
2005-08-04 09:42:57 51°13.679 2°55.814 7.5 229 17.6 102560 66
2005-08-04 09:43:02 51°13.68 2°55.806 5.9 233 17.6 102560 66
2005-08-04 09:43:07 51°13.681 2°55.798 7.3 225 17.6 102560 67
2005-08-04 09:43:12 51°13.682 2°55.791 7.1 222 17.6 102560 67
2005-08-04 09:43:17 51°13.683 2°55.785 7.8 227 17.6 102570 67
2005-08-04 09:43:22 51°13.684 2°55.779 7.4 222 17.6 102570 67
2005-08-04 09:43:27 51°13.684 2°55.772 6.3 226 17.6 102560 68
2005-08-04 09:43:32 51°13.685 2°55.767 5.6 228 17.6 102560 68
2005-08-04 09:43:37 51°13.685 2°55.763 7 239 17.6 102570 68
2005-08-04 09:43:42 51°13.686 2°55.761 7.3 243 17.6 102570 68
2005-08-04 09:43:47 51°13.686 2°55.759 5.4 249 17.6 102560 67
2005-08-04 09:43:52 51°13.686 2°55.759 4.4 256 17.6 102560 67
2005-08-04 09:43:57 51°13.686 2°55.761 4.9 256 17.6 102560 67
2005-08-04 09:44:02 51°13.687 2°55.764 6.1 264 17.6 102560 67
2005-08-04 09:44:06 51°13.687 2°55.767 7.5 268 17.6 102570 68
2005-08-04 09:44:11 51°13.688 2°55.769 7.3 270 17.6 102570 68
2005-08-04 09:44:16 51°13.688 2°55.769 7.2 276 17.6 102560 68
2005-08-04 09:44:22 51°13.687 2°55.769 5.7 267 17.6 102560 68
2005-08-04 09:44:26 51°13.687 2°55.767 5.1 273 17.6 102560 69
2005-08-04 09:44:30 51°13.686 2°55.765 4.9 283 17.6 102560 69
2005-08-04 09:44:37 51°13.684 2°55.761 5.6 269 17.6 102560 68
2005-08-04 09:44:42 51°13.683 2°55.759 6.7 275 17.6 102560 68
2005-08-04 09:44:47 51°13.681 2°55.756 7 275 17.6 102560 68
2005-08-04 09:44:51 51°13.681 2°55.755 5.8 273 17.6 102560 68
2005-08-04 09:44:57 51°13.681 2°55.756 5.9 291 17.6 102560 69
2005-08-04 09:45:02 51°13.682 2°55.757 4.7 300 17.6 102560 69
2005-08-04 09:45:07 51°13.684 2°55.76 7.3 313 17.6 102550 69
2005-08-04 09:45:12 51°13.686 2°55.763 7.5 228 17.6 102550 69
2005-08-04 09:45:17 51°13.69 2°55.766 7.6 326 17.6 102560 69
2005-08-04 09:45:22 51°13.694 2°55.768 7.1 333 17.6 102560 69
2005-08-04 09:45:26 51°13.698 2°55.769 8.7 339 17.6 102550 69
2005-08-04 09:45:31 51°13.703 2°55.77 7.4 344 17.6 102550 69
2005-08-04 09:45:37 51°13.708 2°55.769 7.1 346 17.7 102550 69
2005-08-04 09:45:42 51°13.712 2°55.768 7.7 347 17.7 102550 69
2005-08-04 09:45:47 51°13.717 2°55.766 7.4 358 17.7 102530 68
2005-08-04 09:45:52 51°13.721 2°55.763 8.7 5 17.7 102530 68
2005-08-04 09:45:57 51°13.726 2°55.759 8.7 13 17.7 102540 68
2005-08-04 09:46:01 51°13.73 2°55.754 8.7 19 17.7 102540 68
2005-08-04 09:46:06 51°13.733 2°55.748 8 13 17.7 102530 68
2005-08-04 09:46:11 51°13.737 2°55.742 8.8 17 17.7 102530 68
2005-08-04 09:46:15 51°13.74 2°55.736 8.9 16 17.6 102540 67
2005-08-04 09:46:22 51°13.746 2°55.725 10 22 17.6 102540 67
2005-08-04 09:46:26 51°13.751 2°55.717 9.2 13 17.6 102540 67
2005-08-04 09:46:32 51°13.757 2°55.707 8.5 20 17.6 102540 67
2005-08-04 09:46:36 51°13.762 2°55.699 9.2 21 17.6 102530 67
2005-08-04 09:46:42 51°13.769 2°55.688 10.2 12 17.6 102530 67
2005-08-04 09:46:46 51°13.775 2°55.68 8.8 19 17.6 102530 66
2005-08-04 09:46:52 51°13.783 2°55.669 7.9 19 17.6 102530 66
2005-08-04 09:46:57 51°13.791 2°55.659 9.3 1 17.6 102540 67
2005-08-04 09:47:02 51°13.8 2°55.65 7.8 13 17.6 102540 67
2005-08-04 09:47:07 51°13.808 2°55.641 8.3 1 17.6 102530 67
2005-08-04 09:47:12 51°13.817 2°55.633 6.8 -999 17.6 102530 67
2005-08-04 09:47:16 51°13.825 2°55.627 6.7 354 17.6 102540 67
2005-08-04 09:47:22 51°13.837 2°55.618 7.4 2 17.6 102540 67
2005-08-04 09:47:26 51°13.846 2°55.611 7.2 353 17.6 102530 67
2005-08-04 09:47:31 51°13.856 2°55.604 8.8 360 17.6 102530 67
2005-08-04 09:47:36 51°13.866 2°55.597 9.9 351 17.6 102530 67
2005-08-04 09:47:42 51°13.878 2°55.589 9.3 350 17.6 102530 67
2005-08-04 09:47:47 51°13.888 2°55.582 10.2 353 17.6 102540 66
2005-08-04 09:47:52 51°13.899 2°55.575 9.5 7 17.6 102540 66
2005-08-04 09:47:57 51°13.909 2°55.568 9.4 349 17.6 102540 66
2005-08-04 09:48:02 51°13.92 2°55.56 9.1 351 17.6 102540 66
2005-08-04 09:48:07 51°13.93 2°55.552 9.1 349 17.6 102530 66
2005-08-04 09:48:11 51°13.94 2°55.545 8.3 360 17.6 102530 66
2005-08-04 09:48:15 51°13.948 2°55.539 9.7 4 17.6 102540 66
2005-08-04 09:48:22 51°13.962 2°55.53 10.4 350 17.6 102540 66
2005-08-04 09:48:27 51°13.973 2°55.523 9.8 341 17.6 102530 66
2005-08-04 09:48:31 51°13.983 2°55.516 7.8 353 17.6 102530 66
2005-08-04 09:48:37 51°13.995 2°55.508 8.1 360 17.6 102530 66
2005-08-04 09:48:42 51°14.005 2°55.501 8.3 351 17.6 102530 66
2005-08-04 09:48:46 51°14.015 2°55.494 8.7 3 17.6 102540 66
2005-08-04 09:48:52 51°14.027 2°55.486 4.4 355 17.6 102540 66
2005-08-04 09:48:56 51°14.037 2°55.479 10.7 351 17.6 102530 67
2005-08-04 09:49:02 51°14.049 2°55.471 11.5 349 17.6 102530 67
2005-08-04 09:49:06 51°14.058 2°55.464 10.3 351 17.7 102530 68
2005-08-04 09:49:11 51°14.068 2°55.458 11.9 346 17.7 102530 68
2005-08-04 09:49:17 51°14.081 2°55.448 10.1 352 17.7 102520 68
2005-08-04 09:49:22 51°14.091 2°55.44 10 347 17.7 102520 68
2005-08-04 09:49:26 51°14.1 2°55.434 10.8 345 17.7 102520 68
2005-08-04 09:49:31 51°14.112 2°55.425 10.4 345 17.7 102520 68
2005-08-04 09:49:37 51°14.123 2°55.417 10.1 345 17.7 102520 67
2005-08-04 09:49:42 51°14.134 2°55.408 9.5 341 17.7 102520 67
2005-08-04 09:49:46 51°14.144 2°55.4 10.1 349 17.8 102520 67
2005-08-04 09:49:51 51°14.154 2°55.39 8.8 355 17.8 102520 67
2005-08-04 09:49:55 51°14.163 2°55.382 8.8 352 17.8 102520 67
2005-08-04 09:50:02 51°14.178 2°55.367 11.7 349 17.8 102520 67
2005-08-04 09:50:07 51°14.189 2°55.355 11 350 17.8 102530 67
2005-08-04 09:50:12 51°14.2 2°55.343 11 352 17.8 102530 67
2005-08-04 09:50:17 51°14.211 2°55.33 10.8 353 17.8 102520 68
2005-08-04 09:50:22 51°14.222 2°55.316 10.9 355 17.8 102520 68
2005-08-04 09:50:27 51°14.232 2°55.301 11.8 2 17.8 102530 67
2005-08-04 09:50:32 51°14.243 2°55.286 11.5 357 17.8 102530 67
2005-08-04 09:50:36 51°14.252 2°55.272 11.9 360 17.8 102520 67
2005-08-04 09:50:42 51°14.263 2°55.253 11.4 356 17.8 102520 67
2005-08-04 09:50:46 51°14.271 2°55.24 11.4 357 17.8 102520 67
2005-08-04 09:50:51 51°14.282 2°55.221 11.2 2 17.8 102520 67
2005-08-04 09:50:57 51°14.292 2°55.201 11.8 5 17.8 102530 66
2005-08-04 09:51:02 51°14.301 2°55.183 12.1 359 17.8 102530 66
2005-08-04 09:51:06 51°14.308 2°55.168 12.4 6 17.8 102520 67
2005-08-04 09:51:12 51°14.318 2°55.146 11.8 7 17.8 102520 67
2005-08-04 09:51:16 51°14.325 2°55.13 13.2 5 17.8 102520 67
2005-08-04 09:51:22 51°14.335 2°55.108 12.1 9 17.7 102520 67
2005-08-04 09:51:26 51°14.342 2°55.092 12.9 8 17.7 102520 68
2005-08-04 09:51:31 51°14.352 2°55.071 13.1 6 17.7 102520 68
2005-08-04 09:51:35 51°14.358 2°55.055 12.9 7 17.7 102520 68
2005-08-04 09:51:42 51°14.37 2°55.029 12.6 8 17.7 102520 68
2005-08-04 09:51:47 51°14.379 2°55.01 12.9 -999 17.7 102530 66
2005-08-04 09:51:52 51°14.39 2°54.991 12 -999 17.7 102530 66
2005-08-04 09:51:56 51°14.4 2°54.975 11.6 359 17.7 102510 66
2005-08-04 09:52:02 51°14.412 2°54.957 12 356 17.7 102510 66
2005-08-04 09:52:06 51°14.423 2°54.942 12.6 356 17.7 102530 66
2005-08-04 09:52:11 51°14.435 2°54.926 13.4 356 17.7 102530 66
2005-08-04 09:52:16 51°14.448 2°54.912 13.2 355 17.7 102510 66
2005-08-04 09:52:22 51°14.463 2°54.897 13.2 349 17.7 102510 66
2005-08-04 09:52:27 51°14.476 2°54.885 12.4 346 17.7 102520 67
2005-08-04 09:52:31 51°14.489 2°54.876 12.3 344 17.7 102520 67
2005-08-04 09:52:37 51°14.506 2°54.866 11.8 340 17.7 102510 67
2005-08-04 09:52:42 51°14.521 2°54.858 11.6 337 17.7 102510 67
2005-08-04 09:52:46 51°14.533 2°54.853 12 339 17.6 102510 67
2005-08-04 09:52:52 51°14.552 2°54.845 12 337 17.6 102510 67
2005-08-04 09:52:57 51°14.568 2°54.839 12.9 338 17.6 102520 67
2005-08-04 09:53:02 51°14.583 2°54.832 12.6 342 17.6 102520 67
2005-08-04 09:53:06 51°14.598 2°54.826 12.9 343 17.6 102510 68
2005-08-04 09:53:11 51°14.612 2°54.819 13.1 339 17.6 102510 68
2005-08-04 09:53:17 51°14.631 2°54.81 13.5 341 17.6 102510 66
2005-08-04 09:53:22 51°14.647 2°54.801 12.9 340 17.6 102510 66
2005-08-04 09:53:26 51°14.659 2°54.795 12.9 341 17.6 102500 66
2005-08-04 09:53:32 51°14.68 2°54.783 12.1 341 17.6 102500 66
2005-08-04 09:53:37 51°14.694 2°54.776 12.7 339 17.6 102500 66
2005-08-04 09:53:42 51°14.71 2°54.767 13 340 17.6 102500 66
2005-08-04 09:53:46 51°14.724 2°54.759 12.3 341 17.6 102490 65
2005-08-04 09:53:51 51°14.74 2°54.751 12.3 342 17.6 102490 65
2005-08-04 09:53:55 51°14.752 2°54.745 11.8 340 17.6 102510 65
2005-08-04 09:54:02 51°14.773 2°54.735 12.4 343 17.6 102510 65
2005-08-04 09:54:06 51°14.788 2°54.728 11.8 346 17.6 102500 66
2005-08-04 09:54:12 51°14.805 2°54.72 12.5 345 17.6 102500 66
2005-08-04 09:54:17 51°14.821 2°54.712 12.9 344 17.6 102510 65
2005-08-04 09:54:22 51°14.837 2°54.704 13.3 341 17.6 102510 65
2005-08-04 09:54:27 51°14.853 2°54.697 12.6 341 17.6 102500 66
2005-08-04 09:54:31 51°14.868 2°54.69 13 341 17.6 102500 66
2005-08-04 09:54:37 51°14.885 2°54.682 12.7 340 17.6 102510 66
2005-08-04 09:54:42 51°14.901 2°54.674 12 339 17.6 102510 66
2005-08-04 09:54:47 51°14.917 2°54.666 12.6 336 17.6 102500 66
2005-08-04 09:54:52 51°14.934 2°54.659 12.4 340 17.6 102500 66
2005-08-04 09:54:57 51°14.949 2°54.651 13.5 344 17.6 102500 65
2005-08-04 09:55:02 51°14.966 2°54.643 12.2 339 17.6 102500 65
2005-08-04 09:55:07 51°14.982 2°54.635 12.8 340 17.6 102500 65
2005-08-04 09:55:11 51°14.994 2°54.63 11.6 337 17.6 102500 65
2005-08-04 09:55:17 51°15.014 2°54.62 11.5 337 17.6 102510 66
2005-08-04 09:55:22 51°15.03 2°54.613 12.1 336 17.6 102510 66
2005-08-04 09:55:26 51°15.044 2°54.606 12.9 335 17.6 102510 66
2005-08-04 09:55:31 51°15.06 2°54.598 12.3 338 17.6 102510 66
2005-08-04 09:55:35 51°15.073 2°54.592 12.7 338 17.6 102510 66
2005-08-04 09:55:42 51°15.094 2°54.582 13.1 337 17.6 102510 66
2005-08-04 09:55:46 51°15.108 2°54.574 13.3 335 17.6 102510 66
2005-08-04 09:55:52 51°15.125 2°54.566 11.9 333 17.6 102510 66
2005-08-04 09:55:57 51°15.141 2°54.558 12.1 332 17.6 102520 66
2005-08-04 09:56:02 51°15.158 2°54.551 11.2 343 17.6 102520 66
2005-08-04 09:56:06 51°15.171 2°54.545 11.4 343 17.6 102500 66
2005-08-04 09:56:12 51°15.19 2°54.535 12 345 17.6 102500 66
2005-08-04 09:56:17 51°15.206 2°54.528 12 344 17.6 102500 67
2005-08-04 09:56:22 51°15.222 2°54.519 12.1 342 17.6 102500 67
2005-08-04 09:56:26 51°15.236 2°54.512 12.6 345 17.6 102510 69
2005-08-04 09:56:31 51°15.252 2°54.504 11.6 336 17.6 102510 69
2005-08-04 09:56:35 51°15.265 2°54.498 13.2 336 17.6 102510 68
2005-08-04 09:56:42 51°15.286 2°54.487 13.3 333 17.6 102510 68
2005-08-04 09:56:46 51°15.3 2°54.481 12.8 333 17.6 102520 68
2005-08-04 09:56:52 51°15.318 2°54.472 12.5 335 17.6 102520 68
2005-08-04 09:56:56 51°15.332 2°54.465 12.1 334 17.6 102500 69
2005-08-04 09:57:02 51°15.35 2°54.457 11.7 334 17.6 102500 69
2005-08-04 09:57:06 51°15.363 2°54.451 11.7 339 17.6 102510 68
2005-08-04 09:57:12 51°15.382 2°54.442 13.3 336 17.6 102510 68
2005-08-04 09:57:17 51°15.398 2°54.434 12.4 332 17.6 102500 67
2005-08-04 09:57:22 51°15.414 2°54.426 11.4 337 17.6 102500 67
2005-08-04 09:57:26 51°15.428 2°54.419 11.7 337 17.6 102520 67
2005-08-04 09:57:32 51°15.446 2°54.411 10.9 335 17.6 102520 67
2005-08-04 09:57:36 51°15.46 2°54.404 12.2 342 17.6 102520 68
2005-08-04 09:57:42 51°15.478 2°54.396 11.4 342 17.6 102520 68
2005-08-04 09:57:47 51°15.495 2°54.387 12.3 339 17.6 102530 69
2005-08-04 09:57:52 51°15.511 2°54.379 11.6 343 17.6 102530 69
2005-08-04 09:57:57 51°15.525 2°54.372 12.1 345 17.6 102530 70
2005-08-04 09:58:02 51°15.541 2°54.364 12.7 347 17.6 102530 70
2005-08-04 09:58:07 51°15.557 2°54.356 13.1 346 17.6 102530 70
2005-08-04 09:58:11 51°15.571 2°54.348 12.9 346 17.6 102530 69
2005-08-04 09:58:17 51°15.588 2°54.34 12.6 346 17.6 102520 70
2005-08-04 09:58:22 51°15.604 2°54.333 13.2 343 17.6 102520 70
2005-08-04 09:58:27 51°15.62 2°54.325 12.4 343 17.6 102520 70
2005-08-04 09:58:31 51°15.634 2°54.318 11.8 342 17.6 102520 70
2005-08-04 09:58:37 51°15.651 2°54.311 12 342 17.6 102510 68
2005-08-04 09:58:42 51°15.667 2°54.303 11.3 345 17.6 102510 68
2005-08-04 09:58:46 51°15.681 2°54.296 11.8 343 17.6 102520 68
2005-08-04 09:58:52 51°15.698 2°54.288 11.2 342 17.6 102520 68
2005-08-04 09:58:57 51°15.714 2°54.281 11.5 343 17.6 102520 68
2005-08-04 09:59:02 51°15.729 2°54.273 11.5 342 17.6 102520 68
2005-08-04 09:59:07 51°15.745 2°54.266 11.4 347 17.6 102530 68
2005-08-04 09:59:12 51°15.761 2°54.259 12.2 340 17.6 102530 68
2005-08-04 09:59:17 51°15.777 2°54.251 12.1 339 17.6 102520 68
2005-08-04 09:59:22 51°15.793 2°54.243 12 339 17.6 102520 68
2005-08-04 09:59:27 51°15.81 2°54.234 12 340 17.6 102520 68
2005-08-04 09:59:32 51°15.824 2°54.227 11.4 339 17.6 102520 68
2005-08-04 09:59:37 51°15.839 2°54.218 11.1 342 17.6 102520 68
2005-08-04 09:59:42 51°15.855 2°54.209 11.2 341 17.6 102520 68
2005-08-04 09:59:46 51°15.867 2°54.203 11.1 346 17.6 102520 68
2005-08-04 09:59:51 51°15.885 2°54.193 13.1 339 17.6 102520 68
2005-08-04 09:59:57 51°15.902 2°54.184 11.1 341 17.7 102530 69
2005-08-04 10:00:02 51°15.918 2°54.176 12 341 17.7 102530 69
2005-08-04 10:00:06 51°15.931 2°54.17 11.1 343 17.7 102520 70
2005-08-04 10:00:10 51°15.942 2°54.165 11.2 340 17.7 102520 70
2005-08-04 10:00:17 51°15.959 2°54.157 11.2 342 17.7 102520 71
2005-08-04 10:00:22 51°15.97 2°54.152 10.3 337 17.7 102520 71
2005-08-04 10:00:26 51°15.98 2°54.148 10.2 334 17.7 102520 70
2005-08-04 10:00:31 51°15.992 2°54.144 10.3 332 17.7 102520 70
2005-08-04 10:00:37 51°16.003 2°54.141 9.9 325 17.6 102520 69
2005-08-04 10:00:42 51°16.012 2°54.138 9.3 324 17.6 102520 69
2005-08-04 10:00:47 51°16.022 2°54.137 9.7 320 17.7 102530 70
2005-08-04 10:00:52 51°16.031 2°54.136 9.4 228 17.7 102530 70
2005-08-04 10:00:57 51°16.04 2°54.135 9.4 41 17.7 102530 71
2005-08-04 10:01:02 51°16.047 2°54.135 8.8 314 17.7 102530 71
2005-08-04 10:01:07 51°16.055 2°54.136 9.2 312 17.7 102530 72
2005-08-04 10:01:12 51°16.063 2°54.135 8.4 307 17.7 102530 72
2005-08-04 10:01:15 51°16.068 2°54.136 8.6 307 17.7 102540 70
2005-08-04 10:01:22 51°16.078 2°54.137 8.5 303 17.7 102540 70
2005-08-04 10:01:26 51°16.083 2°54.137 7.5 304 17.7 102540 70
2005-08-04 10:01:30 51°16.088 2°54.138 7.3 303 17.7 102540 70
2005-08-04 10:01:37 51°16.096 2°54.14 8.1 312 17.7 102540 69
2005-08-04 10:01:42 51°16.102 2°54.142 7.9 306 17.7 102540 69
2005-08-04 10:01:47 51°16.108 2°54.144 6.9 299 17.7 102540 69
2005-08-04 10:01:52 51°16.113 2°54.146 7.2 307 17.7 102540 69
2005-08-04 10:01:56 51°16.118 2°54.148 7.7 310 17.7 102550 69
2005-08-04 10:02:02 51°16.123 2°54.15 7.1 306 17.7 102550 69
2005-08-04 10:02:07 51°16.128 2°54.153 6.6 302 17.7 102540 70
2005-08-04 10:02:11 51°16.132 2°54.156 7.1 299 17.7 102540 70
2005-08-04 10:02:17 51°16.137 2°54.159 6.8 294 17.7 102550 70
2005-08-04 10:02:22 51°16.142 2°54.162 6.8 302 17.7 102550 70
2005-08-04 10:02:26 51°16.146 2°54.166 7.5 295 17.7 102550 70
2005-08-04 10:02:31 51°16.151 2°54.17 7.2 299 17.7 102550 70
2005-08-04 10:02:37 51°16.157 2°54.175 7.5 291 17.7 102540 70
2005-08-04 10:02:42 51°16.161 2°54.18 7.4 293 17.7 102540 70
2005-08-04 10:02:46 51°16.165 2°54.184 6.6 292 17.7 102550 69
2005-08-04 10:02:52 51°16.17 2°54.19 8 285 17.7 102550 69
2005-08-04 10:02:57 51°16.175 2°54.197 7.7 288 17.7 102550 70
2005-08-04 10:03:02 51°16.179 2°54.202 7.5 288 17.7 102550 70
2005-08-04 10:03:06 51°16.184 2°54.208 8.3 285 17.7 102550 70
2005-08-04 10:03:11 51°16.188 2°54.213 8.3 280 17.7 102550 70
2005-08-04 10:03:17 51°16.193 2°54.221 7.1 290 17.8 102550 70
2005-08-04 10:03:22 51°16.197 2°54.227 8.5 293 17.8 102550 70
2005-08-04 10:03:27 51°16.202 2°54.233 8.4 290 17.8 102550 70
2005-08-04 10:03:32 51°16.206 2°54.239 7.4 295 17.8 102550 70
2005-08-04 10:03:36 51°16.211 2°54.244 7.9 294 17.8 102550 70
2005-08-04 10:03:42 51°16.215 2°54.25 8.3 291 17.8 102550 70
2005-08-04 10:03:47 51°16.22 2°54.256 8 292 17.8 102550 69
2005-08-04 10:03:51 51°16.223 2°54.26 7.5 289 17.8 102550 69
2005-08-04 10:03:57 51°16.227 2°54.266 6.7 290 17.8 102560 69
2005-08-04 10:04:02 51°16.231 2°54.269 7.7 288 17.8 102560 69
2005-08-04 10:04:07 51°16.235 2°54.273 6.9 291 17.8 102550 68
2005-08-04 10:04:12 51°16.238 2°54.277 7.1 291 17.8 102550 68
2005-08-04 10:04:17 51°16.241 2°54.28 7.7 291 17.8 102550 67
2005-08-04 10:04:22 51°16.243 2°54.283 7.6 294 17.8 102550 67
2005-08-04 10:04:26 51°16.246 2°54.286 7.1 290 17.7 102550 67
2005-08-04 10:04:31 51°16.249 2°54.288 6.9 288 17.7 102550 67
2005-08-04 10:04:37 51°16.251 2°54.291 6.6 286 17.8 102550 67
2005-08-04 10:04:42 51°16.254 2°54.294 6.9 287 17.8 102550 67
2005-08-04 10:04:47 51°16.256 2°54.296 7.2 286 17.8 102550 67
2005-08-04 10:04:52 51°16.259 2°54.299 6.4 286 17.8 102550 67
2005-08-04 10:04:57 51°16.26 2°54.301 7.1 287 17.8 102550 67
2005-08-04 10:05:02 51°16.261 2°54.302 6.8 282 17.8 102550 67
2005-08-04 10:05:06 51°16.262 2°54.303 7.1 286 17.8 102550 67
2005-08-04 10:05:12 51°16.263 2°54.306 8.4 289 17.8 102550 67
2005-08-04 10:05:17 51°16.264 2°54.308 7.9 290 17.8 102550 67
2005-08-04 10:05:22 51°16.265 2°54.31 8.3 286 17.8 102550 67
2005-08-04 10:05:27 51°16.265 2°54.31 7.4 286 17.8 102560 67
2005-08-04 10:05:32 51°16.264 2°54.311 8.2 281 17.8 102560 67
2005-08-04 10:05:35 51°16.264 2°54.313 7 283 17.8 102560 67
2005-08-04 10:05:42 51°16.264 2°54.315 7.9 288 17.8 102560 67
2005-08-04 10:05:47 51°16.264 2°54.316 7 289 17.8 102550 66
2005-08-04 10:05:52 51°16.264 2°54.317 7.7 275 17.8 102550 66
2005-08-04 10:05:56 51°16.263 2°54.318 7.6 276 17.8 102550 65
2005-08-04 10:06:02 51°16.263 2°54.32 6.5 286 17.8 102550 65
2005-08-04 10:06:07 51°16.263 2°54.321 8.3 295 17.7 102550 65
2005-08-04 10:06:12 51°16.263 2°54.323 7.7 290 17.7 102550 65
2005-08-04 10:06:17 51°16.262 2°54.324 7.2 290 17.8 102550 66
2005-08-04 10:06:22 51°16.262 2°54.325 8 290 17.8 102550 66
2005-08-04 10:06:26 51°16.262 2°54.326 8.3 284 17.8 102550 67
2005-08-04 10:06:32 51°16.261 2°54.327 8.8 284 17.8 102550 67
2005-08-04 10:06:37 51°16.261 2°54.328 8.7 281 17.8 102550 67
2005-08-04 10:06:42 51°16.26 2°54.33 7.7 284 17.8 102550 67
2005-08-04 10:06:47 51°16.26 2°54.331 7.3 286 17.8 102550 67
2005-08-04 10:06:52 51°16.26 2°54.332 7.7 282 17.8 102550 67
2005-08-04 10:06:57 51°16.259 2°54.333 7.3 283 17.8 102550 66
2005-08-04 10:07:02 51°16.258 2°54.335 7.9 288 17.8 102550 66
2005-08-04 10:07:06 51°16.258 2°54.336 7.3 290 17.8 102550 66
2005-08-04 10:07:12 51°16.257 2°54.337 7.2 284 17.8 102550 66
2005-08-04 10:07:17 51°16.257 2°54.338 7.5 287 17.8 102550 66
2005-08-04 10:07:22 51°16.257 2°54.339 7.3 287 17.8 102550 66
2005-08-04 10:07:27 51°16.256 2°54.341 7.2 287 17.8 102550 67
2005-08-04 10:07:31 51°16.255 2°54.341 7.6 292 17.8 102550 67
2005-08-04 10:07:37 51°16.255 2°54.343 7.3 291 17.8 102550 66
2005-08-04 10:07:42 51°16.254 2°54.344 6.7 289 17.8 102550 66
2005-08-04 10:07:47 51°16.253 2°54.345 6.9 290 17.8 102550 65
2005-08-04 10:07:52 51°16.253 2°54.346 6.9 291 17.8 102550 65
2005-08-04 10:07:57 51°16.252 2°54.348 6.9 290 17.8 102550 65
2005-08-04 10:08:02 51°16.251 2°54.349 7 286 17.8 102550 65
2005-08-04 10:08:06 51°16.251 2°54.349 6.1 290 17.8 102550 65
2005-08-04 10:08:10 51°16.25 2°54.35 7.1 287 17.8 102550 65
2005-08-04 10:08:17 51°16.248 2°54.351 7.9 276 17.8 102550 65
2005-08-04 10:08:22 51°16.247 2°54.352 6.6 285 17.8 102550 65
2005-08-04 10:08:26 51°16.246 2°54.353 6.9 283 17.8 102550 65
2005-08-04 10:08:32 51°16.245 2°54.354 6.9 286 17.8 102550 65
2005-08-04 10:08:37 51°16.243 2°54.355 6.3 286 17.8 102550 66
2005-08-04 10:08:42 51°16.242 2°54.356 6.8 284 17.8 102550 66
2005-08-04 10:08:47 51°16.241 2°54.357 7 283 17.8 102550 65
2005-08-04 10:08:52 51°16.24 2°54.358 6.9 279 17.8 102550 65
2005-08-04 10:08:57 51°16.238 2°54.359 6.8 281 17.8 102550 64
2005-08-04 10:09:02 51°16.237 2°54.36 6.9 282 17.8 102550 64
2005-08-04 10:09:06 51°16.236 2°54.361 7.6 277 17.8 102550 64
2005-08-04 10:09:11 51°16.235 2°54.362 7.3 280 17.8 102550 64
2005-08-04 10:09:17 51°16.233 2°54.363 6.4 268 17.8 102550 64
2005-08-04 10:09:22 51°16.232 2°54.364 6.9 282 17.8 102550 64
2005-08-04 10:09:26 51°16.231 2°54.365 7.2 269 17.8 102560 65
2005-08-04 10:09:32 51°16.23 2°54.366 6.8 271 17.8 102560 65
2005-08-04 10:09:37 51°16.229 2°54.367 6.4 269 17.8 102560 65
2005-08-04 10:09:42 51°16.228 2°54.368 6.4 269 17.8 102560 65
2005-08-04 10:09:46 51°16.226 2°54.368 6.7 265 17.8 102550 64
2005-08-04 10:09:50 51°16.226 2°54.369 5.3 262 17.8 102550 64
2005-08-04 10:09:57 51°16.224 2°54.37 4.5 259 17.7 102560 65
2005-08-04 10:10:02 51°16.222 2°54.37 6 260 17.7 102560 65
2005-08-04 10:10:07 51°16.221 2°54.371 4.9 262 17.8 102550 66
2005-08-04 10:10:12 51°16.22 2°54.372 4.9 261 17.8 102550 66
2005-08-04 10:10:17 51°16.219 2°54.373 5.5 261 17.7 102560 66
2005-08-04 10:10:22 51°16.218 2°54.374 3.7 260 17.7 102560 66
2005-08-04 10:10:27 51°16.217 2°54.375 4.5 261 17.7 102560 65
2005-08-04 10:10:32 51°16.216 2°54.376 4.9 264 17.7 102560 65
2005-08-04 10:10:37 51°16.214 2°54.377 4.9 261 17.7 102550 66
2005-08-04 10:10:42 51°16.213 2°54.378 3.4 260 17.7 102550 66
2005-08-04 10:10:47 51°16.212 2°54.378 3.9 258 17.7 102560 65
2005-08-04 10:10:51 51°16.211 2°54.379 4 260 17.7 102560 65
2005-08-04 10:10:57 51°16.21 2°54.38 4.9 265 17.7 102550 65
2005-08-04 10:11:02 51°16.209 2°54.38 3.4 251 17.7 102550 65
2005-08-04 10:11:06 51°16.208 2°54.381 3.9 257 17.7 102560 65
2005-08-04 10:11:10 51°16.207 2°54.382 3.3 257 17.7 102560 65
2005-08-04 10:11:17 51°16.206 2°54.383 4.2 253 17.7 102560 66
2005-08-04 10:11:22 51°16.205 2°54.384 4.8 249 17.7 102560 66
2005-08-04 10:11:26 51°16.204 2°54.385 4.2 255 17.7 102560 67
2005-08-04 10:11:32 51°16.203 2°54.386 4.6 256 17.7 102560 67
2005-08-04 10:11:37 51°16.202 2°54.388 4.4 257 17.7 102560 67
2005-08-04 10:11:42 51°16.201 2°54.388 4.4 257 17.7 102560 67
2005-08-04 10:11:47 51°16.2 2°54.389 4 257 17.7 102560 67
2005-08-04 10:11:52 51°16.199 2°54.39 4.4 255 17.7 102560 67
2005-08-04 10:11:57 51°16.198 2°54.391 3.8 256 17.6 102560 67
2005-08-04 10:12:02 51°16.197 2°54.392 3.7 255 17.6 102560 67
2005-08-04 10:12:06 51°16.196 2°54.393 4.1 255 17.6 102550 66
2005-08-04 10:12:11 51°16.195 2°54.393 4.5 253 17.6 102550 66
2005-08-04 10:12:17 51°16.193 2°54.395 4.1 253 17.6 102560 67
2005-08-04 10:12:22 51°16.192 2°54.396 4.7 248 17.6 102560 67
2005-08-04 10:12:27 51°16.191 2°54.397 4.4 236 17.6 102560 67
2005-08-04 10:12:32 51°16.191 2°54.398 4.3 249 17.6 102560 67
2005-08-04 10:12:36 51°16.19 2°54.399 4.1 252 17.6 102560 67
2005-08-04 10:12:42 51°16.189 2°54.4 4.5 251 17.6 102560 67
2005-08-04 10:12:47 51°16.188 2°54.401 3.4 253 17.6 102560 68
2005-08-04 10:12:50 51°16.187 2°54.401 4.5 250 17.6 102560 68
2005-08-04 10:12:57 51°16.186 2°54.403 4.4 255 17.6 102560 67
2005-08-04 10:13:02 51°16.185 2°54.404 4.3 247 17.6 102560 67
2005-08-04 10:13:06 51°16.184 2°54.405 4.5 249 17.5 102560 66
2005-08-04 10:13:12 51°16.184 2°54.407 5.1 241 17.5 102560 66
2005-08-04 10:13:17 51°16.182 2°54.407 5 250 17.5 102560 66
2005-08-04 10:13:22 51°16.182 2°54.408 5 240 17.5 102560 66
2005-08-04 10:13:27 51°16.181 2°54.41 4.6 248 17.5 102560 67
2005-08-04 10:13:32 51°16.18 2°54.411 6.1 246 17.5 102560 67
2005-08-04 10:13:36 51°16.179 2°54.412 5.9 248 17.5 102560 68
2005-08-04 10:13:42 51°16.178 2°54.413 6.4 240 17.5 102560 68
2005-08-04 10:13:46 51°16.177 2°54.414 5.1 246 17.5 102560 69
2005-08-04 10:13:50 51°16.177 2°54.415 4.7 250 17.5 102560 69
2005-08-04 10:13:57 51°16.176 2°54.417 5.5 251 17.5 102560 68
2005-08-04 10:14:02 51°16.175 2°54.418 4.9 244 17.5 102560 68
2005-08-04 10:14:06 51°16.174 2°54.419 3.2 259 17.5 102560 68
2005-08-04 10:14:12 51°16.174 2°54.421 5 249 17.5 102560 68
2005-08-04 10:14:17 51°16.173 2°54.422 4.6 251 17.4 102560 68
2005-08-04 10:14:22 51°16.172 2°54.423 4.8 255 17.4 102560 68
2005-08-04 10:14:26 51°16.171 2°54.424 5.4 251 17.5 102560 69
2005-08-04 10:14:32 51°16.17 2°54.426 4.9 252 17.5 102560 69
2005-08-04 10:14:36 51°16.17 2°54.427 5.3 245 17.4 102560 69
2005-08-04 10:14:42 51°16.169 2°54.428 5.3 244 17.4 102560 69
2005-08-04 10:14:47 51°16.168 2°54.43 4.5 247 17.4 102560 68
2005-08-04 10:14:50 51°16.167 2°54.431 4.9 247 17.4 102560 68
2005-08-04 10:14:57 51°16.167 2°54.433 4.4 252 17.4 102560 69
2005-08-04 10:15:02 51°16.166 2°54.434 4.1 256 17.4 102560 69
2005-08-04 10:15:07 51°16.165 2°54.435 4.8 251 17.5 102560 70
2005-08-04 10:15:11 51°16.164 2°54.436 4.7 252 17.5 102560 70
2005-08-04 10:15:17 51°16.164 2°54.437 5.5 250 17.5 102560 70
2005-08-04 10:15:22 51°16.163 2°54.439 4.2 255 17.5 102560 70
2005-08-04 10:15:26 51°16.162 2°54.44 3.7 257 17.4 102560 70
2005-08-04 10:15:31 51°16.162 2°54.441 4.4 253 17.4 102560 70
2005-08-04 10:15:37 51°16.161 2°54.442 4.3 253 17.4 102560 69
2005-08-04 10:15:42 51°16.16 2°54.444 4.3 255 17.4 102560 69
2005-08-04 10:15:46 51°16.16 2°54.445 3.6 256 17.4 102560 70
2005-08-04 10:15:52 51°16.159 2°54.446 4.6 255 17.4 102560 70
2005-08-04 10:15:57 51°16.158 2°54.447 4.8 249 17.5 102560 71
2005-08-04 10:16:02 51°16.158 2°54.448 4.2 255 17.5 102560 71
2005-08-04 10:16:06 51°16.157 2°54.45 4.7 259 17.5 102560 70
2005-08-04 10:16:12 51°16.157 2°54.452 4.3 255 17.5 102560 70
2005-08-04 10:16:17 51°16.156 2°54.453 4.4 255 17.5 102560 70
2005-08-04 10:16:22 51°16.155 2°54.454 5.5 261 17.5 102560 70
2005-08-04 10:16:26 51°16.155 2°54.456 5.3 263 17.5 102560 70
2005-08-04 10:16:31 51°16.154 2°54.457 5.5 262 17.5 102560 70
2005-08-04 10:16:37 51°16.153 2°54.458 6.9 267 17.5 102560 70
2005-08-04 10:16:42 51°16.153 2°54.459 6.4 272 17.5 102560 70
2005-08-04 10:16:46 51°16.152 2°54.461 7.2 266 17.5 102560 71
2005-08-04 10:16:51 51°16.151 2°54.462 6.6 267 17.5 102560 71
2005-08-04 10:16:57 51°16.151 2°54.464 6.8 263 17.5 102570 72
2005-08-04 10:17:02 51°16.15 2°54.465 7 265 17.5 102570 72
2005-08-04 10:17:06 51°16.15 2°54.466 6.7 270 17.5 102560 73
2005-08-04 10:17:11 51°16.149 2°54.467 6.7 265 17.5 102560 73
2005-08-04 10:17:17 51°16.148 2°54.469 6.6 263 17.5 102560 73
2005-08-04 10:17:22 51°16.148 2°54.47 5.6 261 17.5 102560 73
2005-08-04 10:17:26 51°16.147 2°54.471 5.9 262 17.5 102560 71
2005-08-04 10:17:31 51°16.146 2°54.472 5.7 260 17.5 102560 71
2005-08-04 10:17:37 51°16.146 2°54.474 6.4 261 17.5 102560 69
2005-08-04 10:17:42 51°16.145 2°54.476 5.9 263 17.5 102560 69
2005-08-04 10:17:47 51°16.144 2°54.477 6.1 265 17.5 102560 68
2005-08-04 10:17:51 51°16.144 2°54.478 6.3 264 17.5 102560 68
2005-08-04 10:17:57 51°16.143 2°54.48 4.5 260 17.5 102570 69
2005-08-04 10:18:02 51°16.142 2°54.481 5.3 261 17.5 102570 69
2005-08-04 10:18:07 51°16.142 2°54.482 5.7 261 17.5 102560 69
2005-08-04 10:18:12 51°16.141 2°54.484 7.1 274 17.5 102560 69
2005-08-04 10:18:17 51°16.14 2°54.485 6.6 274 17.5 102560 69
2005-08-04 10:18:22 51°16.14 2°54.487 7.5 274 17.5 102560 69
2005-08-04 10:18:26 51°16.139 2°54.489 7.8 270 17.5 102560 69
2005-08-04 10:18:32 51°16.138 2°54.49 7.2 273 17.5 102560 69
2005-08-04 10:18:37 51°16.137 2°54.491 8.2 274 17.6 102560 70
2005-08-04 10:18:42 51°16.137 2°54.492 7.4 -999 17.6 102560 70
2005-08-04 10:18:47 51°16.136 2°54.494 7 269 17.6 102560 70
2005-08-04 10:18:51 51°16.135 2°54.495 7.6 275 17.6 102560 70
2005-08-04 10:18:57 51°16.135 2°54.497 7.3 273 17.6 102560 69
2005-08-04 10:19:02 51°16.134 2°54.499 7.7 274 17.6 102560 69
2005-08-04 10:19:06 51°16.133 2°54.5 6.8 275 17.6 102560 68
2005-08-04 10:19:11 51°16.133 2°54.501 7.2 269 17.6 102560 68
2005-08-04 10:19:17 51°16.132 2°54.503 3.3 270 17.6 102560 68
2005-08-04 10:19:22 51°16.131 2°54.504 6.6 265 17.6 102560 68
2005-08-04 10:19:27 51°16.131 2°54.506 7 267 17.6 102560 67
2005-08-04 10:19:32 51°16.13 2°54.507 5.7 271 17.6 102560 67
2005-08-04 10:19:37 51°16.129 2°54.508 7 278 17.6 102560 68
2005-08-04 10:19:42 51°16.128 2°54.509 5.7 264 17.6 102560 68
2005-08-04 10:19:47 51°16.127 2°54.511 6.1 270 17.6 102560 69
2005-08-04 10:19:52 51°16.127 2°54.513 6.7 266 17.6 102560 69
2005-08-04 10:19:57 51°16.126 2°54.514 7.1 268 17.6 102560 69
2005-08-04 10:20:02 51°16.125 2°54.515 6.4 263 17.6 102560 69
2005-08-04 10:20:07 51°16.124 2°54.517 7.1 262 17.6 102560 70
2005-08-04 10:20:12 51°16.123 2°54.518 8.2 266 17.6 102560 70
2005-08-04 10:20:17 51°16.122 2°54.52 7.2 265 17.6 102560 69
2005-08-04 10:20:22 51°16.122 2°54.521 7.2 265 17.6 102560 69
2005-08-04 10:20:27 51°16.121 2°54.522 8.4 268 17.6 102560 67
2005-08-04 10:20:31 51°16.12 2°54.524 6.5 261 17.6 102560 67
2005-08-04 10:20:37 51°16.119 2°54.526 7.5 263 17.6 102560 66
2005-08-04 10:20:42 51°16.118 2°54.528 5.4 260 17.6 102560 66
2005-08-04 10:20:47 51°16.118 2°54.529 7.2 265 17.6 102560 66
2005-08-04 10:20:52 51°16.117 2°54.53 6.4 261 17.6 102560 66
2005-08-04 10:20:57 51°16.116 2°54.532 6.4 262 17.6 102570 66
2005-08-04 10:21:02 51°16.115 2°54.534 7.6 263 17.6 102570 66
2005-08-04 10:21:07 51°16.114 2°54.535 7.4 261 17.6 102560 66
2005-08-04 10:21:12 51°16.113 2°54.536 6.5 261 17.6 102560 66
2005-08-04 10:21:17 51°16.111 2°54.541 6.3 262 17.6 102570 67
2005-08-04 10:21:22 51°16.111 2°54.54 5.8 260 17.6 102570 67
2005-08-04 10:21:26 51°16.11 2°54.541 6 260 17.6 102560 67
2005-08-04 10:21:31 51°16.11 2°54.542 6.6 262 17.6 102560 67
2005-08-04 10:21:37 51°16.108 2°54.544 5.2 261 17.6 102570 67
2005-08-04 10:21:42 51°16.108 2°54.546 6.3 262 17.6 102570 67
2005-08-04 10:21:46 51°16.107 2°54.547 5.6 259 17.6 102560 67
2005-08-04 10:21:51 51°16.106 2°54.548 4.8 255 17.6 102560 67
2005-08-04 10:21:57 51°16.105 2°54.55 4.7 259 17.5 102560 67
2005-08-04 10:22:02 51°16.105 2°54.551 5.9 260 17.5 102560 67
2005-08-04 10:22:06 51°16.104 2°54.553 4.7 259 17.6 102560 67
2005-08-04 10:22:11 51°16.103 2°54.554 5.8 261 17.6 102560 67
2005-08-04 10:22:17 51°16.102 2°54.556 5 259 17.6 102560 68
2005-08-04 10:22:22 51°16.101 2°54.557 4.6 255 17.6 102560 68
2005-08-04 10:22:27 51°16.102 2°54.558 6.3 264 17.6 102560 68
2005-08-04 10:22:32 51°16.1 2°54.56 6.4 262 17.6 102560 68
2005-08-04 10:22:36 51°16.099 2°54.561 4.1 257 17.5 102570 67
2005-08-04 10:22:42 51°16.098 2°54.563 4.2 260 17.5 102570 67
2005-08-04 10:22:47 51°16.097 2°54.564 4.6 260 17.5 102560 66
2005-08-04 10:22:52 51°16.096 2°54.566 5.3 261 17.5 102560 66
2005-08-04 10:22:57 51°16.095 2°54.567 4.8 259 17.5 102570 67
2005-08-04 10:23:02 51°16.095 2°54.568 5.6 259 17.5 102570 67
2005-08-04 10:23:06 51°16.094 2°54.569 4.1 256 17.5 102560 68
2005-08-04 10:23:10 51°16.093 2°54.57 4.7 256 17.5 102560 68
2005-08-04 10:23:17 51°16.092 2°54.573 6 261 17.5 102560 68
2005-08-04 10:23:22 51°16.091 2°54.574 4.5 256 17.5 102560 68
2005-08-04 10:23:26 51°16.091 2°54.575 4.7 258 17.5 102560 68
2005-08-04 10:23:32 51°16.089 2°54.576 4.7 256 17.5 102560 68
2005-08-04 10:23:37 51°16.089 2°54.578 4.4 259 17.5 102560 68
2005-08-04 10:23:42 51°16.088 2°54.579 4.4 -999 17.5 102560 68
2005-08-04 10:23:47 51°16.087 2°54.58 4.5 259 17.5 102560 68
2005-08-04 10:23:51 51°16.086 2°54.582 4.9 249 17.5 102560 68
2005-08-04 10:23:57 51°16.085 2°54.582 4.3 256 17.5 102560 67
2005-08-04 10:24:02 51°16.084 2°54.584 5.4 257 17.5 102560 67
2005-08-04 10:24:07 51°16.083 2°54.585 5.4 258 17.5 102560 68
2005-08-04 10:24:11 51°16.083 2°54.587 4.7 261 17.5 102560 68
2005-08-04 10:24:15 51°16.082 2°54.588 5.1 259 17.5 102560 68
2005-08-04 10:24:22 51°16.081 2°54.59 5.3 260 17.5 102560 68
2005-08-04 10:24:26 51°16.08 2°54.591 6.1 263 17.5 102570 67
2005-08-04 10:24:31 51°16.079 2°54.592 5.5 261 17.5 102570 67
2005-08-04 10:24:37 51°16.078 2°54.594 5.4 261 17.5 102560 67
2005-08-04 10:24:42 51°16.077 2°54.595 4.6 259 17.5 102560 67
2005-08-04 10:24:47 51°16.076 2°54.597 4.9 257 17.4 102560 67
2005-08-04 10:24:52 51°16.075 2°54.598 4.8 258 17.4 102560 67
2005-08-04 10:24:57 51°16.074 2°54.599 5.6 260 17.4 102560 67
2005-08-04 10:25:02 51°16.074 2°54.601 5.3 253 17.4 102560 67
2005-08-04 10:25:06 51°16.073 2°54.602 4.7 254 17.4 102560 67
2005-08-04 10:25:11 51°16.072 2°54.603 5 261 17.4 102560 67
2005-08-04 10:25:17 51°16.071 2°54.605 5.2 261 17.5 102560 69
2005-08-04 10:25:22 51°16.07 2°54.606 4.3 253 17.5 102560 69
2005-08-04 10:25:27 51°16.069 2°54.607 4.8 255 17.5 102560 70
2005-08-04 10:25:31 51°16.068 2°54.609 4.9 260 17.5 102560 70
2005-08-04 10:25:37 51°16.068 2°54.61 4.1 256 17.4 102570 69
2005-08-04 10:25:42 51°16.067 2°54.612 5.6 262 17.4 102570 69
2005-08-04 10:25:47 51°16.066 2°54.613 4.5 258 17.4 102560 67
2005-08-04 10:25:52 51°16.065 2°54.614 4.9 255 17.4 102560 67
2005-08-04 10:25:57 51°16.064 2°54.616 5 255 17.4 102560 68
2005-08-04 10:26:02 51°16.063 2°54.617 4.5 260 17.4 102560 68
2005-08-04 10:26:06 51°16.063 2°54.618 4.2 259 17.4 102560 69
2005-08-04 10:26:11 51°16.062 2°54.62 5.5 265 17.4 102560 69
2005-08-04 10:26:17 51°16.061 2°54.622 3.6 259 17.4 102560 68
2005-08-04 10:26:22 51°16.06 2°54.623 4 259 17.4 102560 68
2005-08-04 10:26:27 51°16.059 2°54.624 4.3 259 17.4 102570 68
2005-08-04 10:26:31 51°16.059 2°54.626 4.2 257 17.4 102570 68
2005-08-04 10:26:37 51°16.058 2°54.627 4.4 258 17.4 102560 69
2005-08-04 10:26:42 51°16.057 2°54.629 5.9 260 17.4 102560 69
2005-08-04 10:26:46 51°16.056 2°54.63 5 259 17.4 102560 69
2005-08-04 10:26:51 51°16.055 2°54.632 6.1 262 17.4 102560 69
2005-08-04 10:26:57 51°16.054 2°54.633 5.5 261 17.4 102560 69
2005-08-04 10:27:02 51°16.054 2°54.635 6.3 260 17.4 102560 69
2005-08-04 10:27:06 51°16.053 2°54.636 5.3 260 17.5 102560 69
2005-08-04 10:27:11 51°16.052 2°54.638 5.3 259 17.5 102560 69
2005-08-04 10:27:17 51°16.051 2°54.639 5.5 251 17.4 102570 69
2005-08-04 10:27:22 51°16.05 2°54.641 5.1 257 17.4 102570 69
2005-08-04 10:27:27 51°16.049 2°54.643 6.3 261 17.4 102560 70
2005-08-04 10:27:32 51°16.048 2°54.644 5.6 259 17.4 102560 70
2005-08-04 10:27:37 51°16.047 2°54.646 5.8 260 17.5 102560 70
2005-08-04 10:27:42 51°16.047 2°54.647 5.6 251 17.5 102560 70
2005-08-04 10:27:47 51°16.046 2°54.648 5.6 251 17.4 102560 70
2005-08-04 10:27:52 51°16.045 2°54.65 6.1 248 17.4 102560 70
2005-08-04 10:27:57 51°16.044 2°54.652 4.4 254 17.5 102560 71
2005-08-04 10:28:02 51°16.044 2°54.654 5.2 254 17.5 102560 71
2005-08-04 10:28:06 51°16.043 2°54.655 5.1 255 17.5 102560 71
2005-08-04 10:28:11 51°16.042 2°54.657 5 253 17.5 102560 71
2005-08-04 10:28:17 51°16.041 2°54.658 4.6 255 17.5 102570 70
2005-08-04 10:28:22 51°16.041 2°54.66 5.2 253 17.5 102570 70
2005-08-04 10:28:26 51°16.04 2°54.661 4.8 257 17.5 102560 70
2005-08-04 10:28:31 51°16.039 2°54.663 5.3 252 17.5 102560 70
2005-08-04 10:28:37 51°16.038 2°54.664 5 254 17.5 102560 71
2005-08-04 10:28:42 51°16.037 2°54.666 5 255 17.5 102560 71
2005-08-04 10:28:47 51°16.037 2°54.668 5.4 254 17.5 102570 71
2005-08-04 10:28:52 51°16.036 2°54.669 4.3 255 17.5 102570 71
2005-08-04 10:28:56 51°16.035 2°54.67 4.9 258 17.5 102560 70
2005-08-04 10:29:02 51°16.035 2°54.673 4.5 256 17.5 102560 70
2005-08-04 10:29:07 51°16.034 2°54.674 4.5 258 17.4 102570 69
2005-08-04 10:29:12 51°16.033 2°54.676 4.9 259 17.4 102570 69
2005-08-04 10:29:17 51°16.032 2°54.677 4.6 257 17.4 102560 70
2005-08-04 10:29:22 51°16.031 2°54.678 4.5 256 17.4 102560 70
2005-08-04 10:29:26 51°16.031 2°54.68 5.2 255 17.4 102570 70
2005-08-04 10:29:31 51°16.03 2°54.681 5.5 252 17.4 102570 70
2005-08-04 10:29:37 51°16.029 2°54.683 4.6 256 17.4 102560 70
2005-08-04 10:29:42 51°16.028 2°54.684 5.1 260 17.4 102560 70
2005-08-04 10:29:47 51°16.028 2°54.686 4.6 257 17.4 102560 71
2005-08-04 10:29:52 51°16.026 2°54.687 4.8 259 17.4 102560 71
2005-08-04 10:29:56 51°16.026 2°54.689 6.1 254 17.4 102560 71
2005-08-04 10:30:02 51°16.025 2°54.691 6.6 250 17.4 102560 71
2005-08-04 10:30:07 51°16.024 2°54.693 6.9 249 17.4 102570 71
2005-08-04 10:30:12 51°16.023 2°54.695 6.4 243 17.4 102570 71
2005-08-04 10:30:17 51°16.023 2°54.696 5.6 248 17.4 102560 72
2005-08-04 10:30:22 51°16.021 2°54.698 4.8 251 17.4 102560 72
2005-08-04 10:30:26 51°16.021 2°54.699 5.5 252 17.4 102560 73
2005-08-04 10:30:32 51°16.02 2°54.701 4.5 259 17.4 102560 73
2005-08-04 10:30:37 51°16.019 2°54.703 5.7 257 17.4 102560 73
2005-08-04 10:30:42 51°16.018 2°54.705 5 256 17.4 102560 73
2005-08-04 10:30:46 51°16.018 2°54.706 5 254 17.4 102570 73
2005-08-04 10:30:51 51°16.017 2°54.708 5 258 17.4 102570 73
2005-08-04 10:30:57 51°16.016 2°54.711 4.9 258 17.4 102570 72
2005-08-04 10:31:02 51°16.015 2°54.712 4.5 256 17.4 102570 72
2005-08-04 10:31:07 51°16.015 2°54.714 4.2 255 17.4 102560 71
2005-08-04 10:31:12 51°16.014 2°54.716 4.7 257 17.4 102560 71
2005-08-04 10:31:15 51°16.014 2°54.717 4.7 253 17.4 102560 70
2005-08-04 10:31:22 51°16.013 2°54.72 4.9 257 17.4 102560 70
2005-08-04 10:31:26 51°16.013 2°54.721 4.6 254 17.4 102560 70
2005-08-04 10:31:30 51°16.012 2°54.723 5.6 248 17.4 102560 70
2005-08-04 10:31:37 51°16.012 2°54.726 5.7 249 17.3 102560 69
2005-08-04 10:31:42 51°16.013 2°54.729 4.9 260 17.3 102560 69
2005-08-04 10:31:47 51°16.014 2°54.732 5.2 250 17.3 102560 70
2005-08-04 10:31:52 51°16.015 2°54.735 7.6 266 17.3 102560 70
2005-08-04 10:31:57 51°16.016 2°54.739 8 265 17.4 102560 71
2005-08-04 10:32:02 51°16.018 2°54.741 8.7 271 17.4 102560 71
2005-08-04 10:32:06 51°16.019 2°54.745 7.7 276 17.4 102560 71
2005-08-04 10:32:12 51°16.022 2°54.749 6.5 280 17.4 102560 71
2005-08-04 10:32:17 51°16.025 2°54.752 6.5 281 17.4 102560 71
2005-08-04 10:32:22 51°16.027 2°54.754 7.3 281 17.4 102560 71
2005-08-04 10:32:26 51°16.029 2°54.757 7.4 283 17.4 102560 71
2005-08-04 10:32:31 51°16.032 2°54.76 5.7 288 17.4 102560 71
2005-08-04 10:32:37 51°16.035 2°54.763 6.7 291 17.4 102560 71
2005-08-04 10:32:42 51°16.038 2°54.765 6.5 297 17.4 102560 71
2005-08-04 10:32:46 51°16.041 2°54.766 6.8 300 17.4 102550 71
2005-08-04 10:32:52 51°16.045 2°54.768 6.2 302 17.4 102550 71
2005-08-04 10:32:57 51°16.049 2°54.769 7 303 17.4 102560 71
2005-08-04 10:33:02 51°16.052 2°54.77 6.5 305 17.4 102560 71
2005-08-04 10:33:07 51°16.055 2°54.77 6.1 38 17.4 102560 71
2005-08-04 10:33:11 51°16.058 2°54.769 6.5 321 17.4 102560 71
2005-08-04 10:33:15 51°16.061 2°54.769 6.7 322 17.4 102550 70
2005-08-04 10:33:22 51°16.065 2°54.767 6.9 328 17.4 102550 70
2005-08-04 10:33:26 51°16.067 2°54.765 6.5 327 17.4 102550 70
2005-08-04 10:33:30 51°16.07 2°54.764 7.7 338 17.4 102550 70
2005-08-04 10:33:37 51°16.074 2°54.76 7.9 333 17.4 102550 71
2005-08-04 10:33:42 51°16.077 2°54.757 7.5 336 17.4 102550 71
2005-08-04 10:33:46 51°16.079 2°54.755 8 337 17.5 102550 71
2005-08-04 10:33:51 51°16.082 2°54.751 8.1 336 17.5 102550 71
2005-08-04 10:33:57 51°16.086 2°54.747 7.8 335 17.5 102550 71
2005-08-04 10:34:02 51°16.089 2°54.743 8.4 336 17.5 102550 71
2005-08-04 10:34:07 51°16.093 2°54.739 8.4 337 17.5 102540 70
2005-08-04 10:34:12 51°16.096 2°54.735 8.9 335 17.5 102540 70
2005-08-04 10:34:17 51°16.099 2°54.73 9 336 17.5 102540 70
2005-08-04 10:34:22 51°16.102 2°54.726 7.4 341 17.5 102540 70
2005-08-04 10:34:27 51°16.106 2°54.721 8.3 339 17.5 102540 70
2005-08-04 10:34:31 51°16.109 2°54.717 8.3 345 17.5 102540 70
2005-08-04 10:34:37 51°16.112 2°54.711 8.4 353 17.5 102540 71
2005-08-04 10:34:42 51°16.115 2°54.706 7.7 359 17.5 102540 71
2005-08-04 10:34:47 51°16.119 2°54.7 7.8 354 17.5 102540 72
2005-08-04 10:34:51 51°16.121 2°54.695 8 354 17.5 102540 72
2005-08-04 10:34:57 51°16.125 2°54.689 7.9 355 17.6 102540 72
2005-08-04 10:35:02 51°16.128 2°54.683 7.3 355 17.6 102540 72
2005-08-04 10:35:06 51°16.13 2°54.677 7.8 355 17.6 102540 72
2005-08-04 10:35:12 51°16.133 2°54.67 7.4 355 17.6 102540 72
2005-08-04 10:35:16 51°16.135 2°54.665 8.4 356 17.5 102540 71
2005-08-04 10:35:22 51°16.137 2°54.658 7.4 353 17.5 102540 71
2005-08-04 10:35:27 51°16.139 2°54.652 7.9 354 17.6 102540 71
2005-08-04 10:35:31 51°16.141 2°54.647 7.7 353 17.6 102540 71
2005-08-04 10:35:37 51°16.142 2°54.64 7.5 4 17.6 102540 72
2005-08-04 10:35:42 51°16.143 2°54.635 6.9 355 17.6 102540 72
2005-08-04 10:35:47 51°16.144 2°54.628 7.7 355 17.6 102550 71
2005-08-04 10:35:52 51°16.145 2°54.623 8.1 -999 17.6 102550 71
2005-08-04 10:35:57 51°16.146 2°54.617 8 3 17.6 102540 71
2005-08-04 10:36:02 51°16.146 2°54.611 8.6 6 17.6 102540 71
2005-08-04 10:36:07 51°16.147 2°54.606 8.1 -999 17.6 102550 71
2005-08-04 10:36:12 51°16.148 2°54.601 7.7 2 17.6 102550 71
2005-08-04 10:36:15 51°16.148 2°54.597 7.7 -999 17.6 102550 70
2005-08-04 10:36:22 51°16.149 2°54.59 7.6 360 17.6 102550 70
2005-08-04 10:36:26 51°16.149 2°54.587 8.5 2 17.6 102540 70
2005-08-04 10:36:30 51°16.15 2°54.582 8.2 359 17.6 102540 70
2005-08-04 10:36:37 51°16.15 2°54.576 8.3 354 17.6 102540 71
2005-08-04 10:36:42 51°16.151 2°54.573 7.8 350 17.6 102540 71
2005-08-04 10:36:46 51°16.152 2°54.569 7.8 349 17.6 102550 71
2005-08-04 10:36:51 51°16.152 2°54.564 7.3 347 17.6 102550 71
2005-08-04 10:36:57 51°16.153 2°54.56 7.1 346 17.6 102530 71
2005-08-04 10:37:02 51°16.154 2°54.557 7.4 348 17.6 102530 71
2005-08-04 10:37:07 51°16.155 2°54.553 7.1 342 17.6 102550 70
2005-08-04 10:37:11 51°16.156 2°54.55 6.9 339 17.6 102550 70
2005-08-04 10:37:17 51°16.158 2°54.547 7.1 333 17.6 102540 70
2005-08-04 10:37:22 51°16.16 2°54.544 6.9 332 17.6 102540 70
2005-08-04 10:37:26 51°16.161 2°54.542 7.4 333 17.6 102540 69
2005-08-04 10:37:32 51°16.163 2°54.539 7.8 331 17.6 102540 69
2005-08-04 10:37:37 51°16.165 2°54.536 6.8 337 17.6 102540 70
2005-08-04 10:37:42 51°16.167 2°54.534 6.6 337 17.6 102540 70
2005-08-04 10:37:46 51°16.168 2°54.532 6.6 344 17.6 102540 70
2005-08-04 10:37:51 51°16.17 2°54.53 6.5 342 17.6 102540 70
2005-08-04 10:37:57 51°16.172 2°54.527 8 343 17.5 102540 70
2005-08-04 10:38:02 51°16.174 2°54.524 8.2 342 17.5 102540 70
2005-08-04 10:38:06 51°16.175 2°54.522 7.7 348 17.6 102550 71
2005-08-04 10:38:12 51°16.177 2°54.519 7.8 349 17.6 102550 71
2005-08-04 10:38:17 51°16.179 2°54.517 7.5 352 17.6 102550 71
2005-08-04 10:38:22 51°16.18 2°54.514 7 353 17.6 102550 71
2005-08-04 10:38:27 51°16.182 2°54.512 7 352 17.6 102540 71
2005-08-04 10:38:32 51°16.183 2°54.509 6.7 353 17.6 102540 71
2005-08-04 10:38:37 51°16.184 2°54.506 6.7 354 17.5 102540 70
2005-08-04 10:38:42 51°16.186 2°54.503 7.1 -999 17.5 102540 70
2005-08-04 10:38:46 51°16.187 2°54.501 6.5 353 17.5 102540 70
2005-08-04 10:38:52 51°16.188 2°54.498 6.1 354 17.5 102540 70
2005-08-04 10:38:57 51°16.19 2°54.494 6.8 352 17.5 102540 69
2005-08-04 10:39:02 51°16.191 2°54.492 6.6 354 17.5 102540 69
2005-08-04 10:39:06 51°16.192 2°54.489 6.3 354 17.5 102550 69
2005-08-04 10:39:11 51°16.193 2°54.486 6.5 356 17.5 102550 69
2005-08-04 10:39:17 51°16.195 2°54.482 5.7 354 17.5 102550 69
2005-08-04 10:39:22 51°16.196 2°54.479 6.2 352 17.5 102550 69
2005-08-04 10:39:27 51°16.197 2°54.475 6.9 354 17.6 102550 69
2005-08-04 10:39:32 51°16.198 2°54.472 6 -999 17.6 102550 69
2005-08-04 10:39:37 51°16.199 2°54.469 6.8 356 17.5 102550 70
2005-08-04 10:39:42 51°16.2 2°54.466 6.3 6 17.5 102550 70
2005-08-04 10:39:47 51°16.201 2°54.463 6.1 2 17.6 102540 70
2005-08-04 10:39:51 51°16.202 2°54.459 7.3 4 17.6 102540 70
2005-08-04 10:39:57 51°16.203 2°54.455 6.8 2 17.6 102540 71
2005-08-04 10:40:02 51°16.204 2°54.452 6.4 359 17.6 102540 71
2005-08-04 10:40:06 51°16.204 2°54.45 6.7 2 17.6 102550 71
2005-08-04 10:40:11 51°16.205 2°54.445 7.5 7 17.6 102550 71
2005-08-04 10:40:17 51°16.206 2°54.442 7.1 4 17.6 102540 71
2005-08-04 10:40:22 51°16.207 2°54.438 7.8 359 17.6 102540 71
2005-08-04 10:40:27 51°16.208 2°54.434 7.3 6 17.6 102550 71
2005-08-04 10:40:32 51°16.208 2°54.431 7.5 7 17.6 102550 71
2005-08-04 10:40:37 51°16.209 2°54.427 6.9 4 17.6 102540 70
2005-08-04 10:40:42 51°16.21 2°54.423 7.1 3 17.6 102540 70
2005-08-04 10:40:47 51°16.211 2°54.42 7.1 358 17.6 102540 70
2005-08-04 10:40:51 51°16.211 2°54.417 6.5 1 17.6 102540 70
2005-08-04 10:40:57 51°16.212 2°54.412 6.3 2 17.6 102540 70
2005-08-04 10:41:02 51°16.213 2°54.41 6 -999 17.6 102540 70
2005-08-04 10:41:07 51°16.213 2°54.406 6.3 3 17.5 102540 70
2005-08-04 10:41:12 51°16.214 2°54.402 6.9 359 17.5 102540 70
2005-08-04 10:41:17 51°16.215 2°54.399 6.4 1 17.6 102550 71
2005-08-04 10:41:22 51°16.215 2°54.396 6.5 1 17.6 102550 71
2005-08-04 10:41:27 51°16.216 2°54.393 5.9 2 17.5 102550 70
2005-08-04 10:41:32 51°16.217 2°54.39 6.1 357 17.5 102550 70
2005-08-04 10:41:37 51°16.218 2°54.387 6.2 1 17.5 102540 70
2005-08-04 10:41:42 51°16.219 2°54.384 6 -999 17.5 102540 70
2005-08-04 10:41:46 51°16.22 2°54.382 6.5 360 17.5 102540 70
2005-08-04 10:41:51 51°16.221 2°54.379 6.8 3 17.5 102540 70
2005-08-04 10:41:57 51°16.222 2°54.377 6.4 2 17.5 102550 70
2005-08-04 10:42:02 51°16.223 2°54.374 6.5 358 17.5 102550 70
2005-08-04 10:42:06 51°16.224 2°54.372 6.2 359 17.5 102550 70
2005-08-04 10:42:12 51°16.225 2°54.369 6.3 -999 17.5 102550 70
2005-08-04 10:42:17 51°16.226 2°54.367 6.8 357 17.5 102540 70
2005-08-04 10:42:22 51°16.227 2°54.364 6.5 352 17.5 102540 70
2005-08-04 10:42:27 51°16.229 2°54.362 5.9 355 17.5 102540 70
2005-08-04 10:42:31 51°16.23 2°54.36 5.4 -999 17.5 102540 70
2005-08-04 10:42:37 51°16.231 2°54.357 5.8 355 17.5 102540 71
2005-08-04 10:42:42 51°16.232 2°54.355 5.6 359 17.5 102540 71
2005-08-04 10:42:47 51°16.233 2°54.353 5.4 -999 17.5 102540 71
2005-08-04 10:42:52 51°16.234 2°54.35 5 357 17.5 102540 71
2005-08-04 10:42:57 51°16.235 2°54.348 5 357 17.5 102540 70
2005-08-04 10:43:02 51°16.236 2°54.345 5.2 359 17.5 102540 70
2005-08-04 10:43:06 51°16.237 2°54.343 5 360 17.5 102540 70
2005-08-04 10:43:11 51°16.238 2°54.341 4.8 355 17.5 102540 70
2005-08-04 10:43:15 51°16.239 2°54.339 5.2 2 17.5 102550 70
2005-08-04 10:43:22 51°16.24 2°54.336 5.3 2 17.5 102550 70
2005-08-04 10:43:27 51°16.241 2°54.333 6.2 1 17.5 102540 71
2005-08-04 10:43:32 51°16.242 2°54.331 6.3 360 17.5 102540 71
2005-08-04 10:43:37 51°16.243 2°54.329 6.6 353 17.5 102550 71
2005-08-04 10:43:42 51°16.244 2°54.327 6.4 354 17.5 102550 71
2005-08-04 10:43:47 51°16.245 2°54.324 5.5 358 17.6 102540 71
2005-08-04 10:43:51 51°16.245 2°54.322 6.6 359 17.6 102540 71
2005-08-04 10:43:57 51°16.246 2°54.32 7.2 360 17.6 102540 72
2005-08-04 10:44:02 51°16.247 2°54.317 6.7 358 17.6 102540 72
2005-08-04 10:44:07 51°16.248 2°54.315 6.2 357 17.6 102540 71
2005-08-04 10:44:11 51°16.249 2°54.314 6.5 357 17.6 102540 71
2005-08-04 10:44:16 51°16.25 2°54.312 6.4 352 17.5 102540 70
2005-08-04 10:44:22 51°16.251 2°54.31 7 352 17.5 102540 70
2005-08-04 10:44:27 51°16.251 2°54.309 6.5 347 17.5 102540 70
2005-08-04 10:44:31 51°16.252 2°54.308 6.2 348 17.5 102540 70
2005-08-04 10:44:36 51°16.253 2°54.307 6.9 348 17.5 102540 70
2005-08-04 10:44:42 51°16.254 2°54.305 6.7 348 17.5 102540 70
2005-08-04 10:44:46 51°16.254 2°54.305 7.2 347 17.5 102540 70
2005-08-04 10:44:51 51°16.255 2°54.304 7 346 17.5 102540 70
2005-08-04 10:44:57 51°16.256 2°54.303 6.9 344 17.5 102540 70
2005-08-04 10:45:02 51°16.257 2°54.302 6.9 344 17.5 102540 70
2005-08-04 10:45:06 51°16.258 2°54.302 7.2 342 17.5 102540 70
2005-08-04 10:45:12 51°16.259 2°54.301 6.6 344 17.5 102540 70
2005-08-04 10:45:17 51°16.26 2°54.302 6.7 345 17.5 102540 70
2005-08-04 10:45:22 51°16.26 2°54.301 6.4 341 17.5 102540 70
2005-08-04 10:45:27 51°16.261 2°54.302 6.3 339 17.5 102540 69
2005-08-04 10:45:32 51°16.262 2°54.302 6.1 339 17.5 102540 69
2005-08-04 10:45:36 51°16.263 2°54.302 6.4 335 17.5 102540 69
2005-08-04 10:45:42 51°16.264 2°54.303 5.8 326 17.5 102540 69
2005-08-04 10:45:47 51°16.265 2°54.303 5.8 329 17.5 102540 69
2005-08-04 10:45:50 51°16.265 2°54.303 6.5 329 17.5 102540 69
2005-08-04 10:45:57 51°16.266 2°54.304 6.7 330 17.5 102540 69
2005-08-04 10:46:02 51°16.267 2°54.306 5.6 327 17.5 102540 69
2005-08-04 10:46:07 51°16.267 2°54.306 5.9 324 17.5 102540 69
2005-08-04 10:46:11 51°16.268 2°54.307 5.7 325 17.5 102540 69
2005-08-04 10:46:17 51°16.269 2°54.309 5.9 324 17.5 102540 68
2005-08-04 10:46:22 51°16.27 2°54.31 5 323 17.5 102540 68
2005-08-04 10:46:26 51°16.27 2°54.311 4.9 322 17.5 102540 68
2005-08-04 10:46:31 51°16.271 2°54.313 5 317 17.5 102540 68
2005-08-04 10:46:37 51°16.272 2°54.314 5 323 17.5 102540 68
2005-08-04 10:46:42 51°16.273 2°54.316 4.8 43 17.5 102540 68
2005-08-04 10:46:46 51°16.273 2°54.318 5.2 314 17.5 102550 68
2005-08-04 10:46:52 51°16.274 2°54.32 5.7 310 17.5 102550 68
2005-08-04 10:46:57 51°16.274 2°54.322 6 304 17.5 102550 68
2005-08-04 10:47:02 51°16.275 2°54.324 6.1 304 17.5 102550 68
2005-08-04 10:47:06 51°16.275 2°54.326 6.3 305 17.5 102550 69
2005-08-04 10:47:11 51°16.275 2°54.328 6.1 300 17.5 102550 69
2005-08-04 10:47:17 51°16.275 2°54.331 5.6 296 17.5 102550 69
2005-08-04 10:47:22 51°16.274 2°54.334 5.6 295 17.5 102550 69
2005-08-04 10:47:27 51°16.274 2°54.337 5.8 287 17.5 102550 69
2005-08-04 10:47:31 51°16.274 2°54.34 5.9 284 17.5 102550 69
2005-08-04 10:47:37 51°16.273 2°54.343 6.2 288 17.5 102550 69
2005-08-04 10:47:42 51°16.272 2°54.346 5.7 287 17.5 102550 69
2005-08-04 10:47:47 51°16.272 2°54.349 5.9 286 17.5 102550 69
2005-08-04 10:47:52 51°16.271 2°54.352 5.8 262 17.5 102550 69
2005-08-04 10:47:57 51°16.27 2°54.355 5 264 17.6 102540 69
2005-08-04 10:48:02 51°16.269 2°54.357 4.6 262 17.6 102540 69
2005-08-04 10:48:06 51°16.268 2°54.359 4.5 263 17.6 102550 69
2005-08-04 10:48:11 51°16.266 2°54.362 6.1 268 17.6 102550 69
2005-08-04 10:48:17 51°16.265 2°54.364 5.8 269 17.6 102550 70
2005-08-04 10:48:22 51°16.264 2°54.366 6.3 265 17.6 102550 70
2005-08-04 10:48:27 51°16.262 2°54.368 4.3 260 17.6 102550 70
2005-08-04 10:48:31 51°16.261 2°54.369 4.1 256 17.6 102550 70
2005-08-04 10:48:37 51°16.259 2°54.371 3.9 258 17.6 102550 71
2005-08-04 10:48:42 51°16.258 2°54.373 4.8 254 17.6 102550 71
2005-08-04 10:48:45 51°16.257 2°54.374 5.2 245 17.7 102550 71
2005-08-04 10:48:52 51°16.254 2°54.375 6 250 17.7 102550 71
2005-08-04 10:48:57 51°16.253 2°54.377 6.3 248 17.7 102550 71
2005-08-04 10:49:02 51°16.252 2°54.378 7 246 17.7 102550 71
2005-08-04 10:49:07 51°16.25 2°54.379 5.1 253 17.6 102550 70
2005-08-04 10:49:12 51°16.248 2°54.38 5.9 246 17.6 102550 70
2005-08-04 10:49:15 51°16.248 2°54.381 5.4 245 17.7 102550 70
2005-08-04 10:49:22 51°16.245 2°54.382 5.1 248 17.7 102550 70
2005-08-04 10:49:26 51°16.244 2°54.383 6 238 17.6 102550 70
2005-08-04 10:49:30 51°16.243 2°54.383 6.1 230 17.6 102550 70
2005-08-04 10:49:37 51°16.241 2°54.384 6 242 17.6 102550 71
2005-08-04 10:49:42 51°16.239 2°54.385 5.4 233 17.6 102550 71
2005-08-04 10:49:47 51°16.238 2°54.385 6 232 17.6 102550 70
2005-08-04 10:49:52 51°16.236 2°54.386 6.6 231 17.6 102550 70
2005-08-04 10:49:57 51°16.235 2°54.386 5.5 236 17.6 102550 72
2005-08-04 10:50:02 51°16.234 2°54.387 5.3 238 17.6 102550 72
2005-08-04 10:50:07 51°16.233 2°54.388 5.2 237 17.6 102550 71
2005-08-04 10:50:12 51°16.233 2°54.39 5.8 246 17.6 102550 71
2005-08-04 10:50:17 51°16.233 2°54.392 4.8 250 17.6 102550 71
2005-08-04 10:50:22 51°16.233 2°54.395 4.5 249 17.6 102550 71
2005-08-04 10:50:26 51°16.233 2°54.398 4.1 249 17.6 102550 72
2005-08-04 10:50:31 51°16.234 2°54.402 3.8 259 17.6 102550 72
2005-08-04 10:50:37 51°16.236 2°54.407 4.4 254 17.6 102550 73
2005-08-04 10:50:42 51°16.238 2°54.411 5.5 -999 17.6 102550 73
2005-08-04 10:50:47 51°16.239 2°54.415 6.1 267 17.6 102550 73
2005-08-04 10:50:52 51°16.241 2°54.419 6.5 266 17.6 102550 73
2005-08-04 10:50:57 51°16.243 2°54.423 6.4 272 17.6 102550 73
2005-08-04 10:51:02 51°16.246 2°54.426 6.6 275 17.6 102550 73
2005-08-04 10:51:06 51°16.248 2°54.429 6.1 286 17.6 102540 72
2005-08-04 10:51:12 51°16.252 2°54.433 6.1 290 17.6 102540 72
2005-08-04 10:51:17 51°16.257 2°54.436 6.3 295 17.6 102550 71
2005-08-04 10:51:22 51°16.261 2°54.438 6.3 309 17.6 102550 71
2005-08-04 10:51:27 51°16.266 2°54.439 5.9 314 17.6 102550 70
2005-08-04 10:51:32 51°16.271 2°54.438 6.6 326 17.6 102550 70
2005-08-04 10:51:37 51°16.275 2°54.437 6.5 325 17.5 102540 70
2005-08-04 10:51:42 51°16.279 2°54.436 6.2 327 17.5 102540 70
2005-08-04 10:51:46 51°16.282 2°54.435 6.3 329 17.6 102540 70
2005-08-04 10:51:51 51°16.285 2°54.435 5.6 327 17.6 102540 70
2005-08-04 10:51:57 51°16.287 2°54.435 5.8 336 17.6 102540 70
2005-08-04 10:52:02 51°16.288 2°54.436 5.6 331 17.6 102540 70
2005-08-04 10:52:07 51°16.289 2°54.438 5.9 333 17.5 102540 70
2005-08-04 10:52:12 51°16.289 2°54.441 5.2 334 17.5 102540 70
2005-08-04 10:52:17 51°16.29 2°54.444 5.6 338 17.6 102540 70
2005-08-04 10:52:22 51°16.29 2°54.448 5.3 339 17.6 102540 70
2005-08-04 10:52:26 51°16.289 2°54.451 5.5 336 17.5 102540 70
2005-08-04 10:52:32 51°16.289 2°54.455 5.2 335 17.5 102540 70
2005-08-04 10:52:37 51°16.289 2°54.459 5.4 337 17.5 102530 69
2005-08-04 10:52:42 51°16.288 2°54.463 5.5 329 17.5 102530 69
2005-08-04 10:52:47 51°16.288 2°54.467 6.1 334 17.6 102540 69
2005-08-04 10:52:52 51°16.288 2°54.469 6.3 337 17.6 102540 69
2005-08-04 10:52:57 51°16.289 2°54.47 6.3 343 17.6 102540 69
2005-08-04 10:53:02 51°16.29 2°54.471 6.7 350 17.6 102540 69
2005-08-04 10:53:06 51°16.291 2°54.471 5.4 357 17.6 102540 69
2005-08-04 10:53:11 51°16.292 2°54.47 6.1 6 17.6 102540 69
2005-08-04 10:53:17 51°16.294 2°54.467 6.5 14 17.6 102540 68
2005-08-04 10:53:23 51°16.295 2°54.464 6.5 19 17.6 102540 68
2005-08-04 10:53:27 51°16.295 2°54.461 6.7 22 17.6 102530 68
2005-08-04 10:53:31 51°16.296 2°54.458 6.3 31 17.6 102530 68
2005-08-04 10:53:37 51°16.296 2°54.453 6.1 26 17.6 102540 68
2005-08-04 10:53:42 51°16.296 2°54.45 5.9 34 17.6 102540 68
2005-08-04 10:53:46 51°16.295 2°54.447 5.9 31 17.5 102540 68
2005-08-04 10:53:52 51°16.294 2°54.443 6.4 30 17.5 102540 68
2005-08-04 10:53:57 51°16.293 2°54.439 6.2 30 17.5 102530 69
2005-08-04 10:54:02 51°16.292 2°54.435 7.1 35 17.5 102530 69
2005-08-04 10:54:06 51°16.291 2°54.432 6.5 41 17.6 102530 71
2005-08-04 10:54:12 51°16.29 2°54.428 7.3 35 17.6 102530 71
2005-08-04 10:54:17 51°16.288 2°54.423 7.6 32 17.5 102540 70
2005-08-04 10:54:22 51°16.287 2°54.42 7.5 35 17.5 102540 70
2005-08-04 10:54:27 51°16.286 2°54.416 7.3 33 17.5 102530 71
2005-08-04 10:54:31 51°16.284 2°54.413 7.3 33 17.5 102530 71
2005-08-04 10:54:37 51°16.283 2°54.408 7.4 28 17.5 102530 70
2005-08-04 10:54:42 51°16.282 2°54.405 6.6 24 17.5 102530 70
2005-08-04 10:54:46 51°16.281 2°54.402 6.8 27 17.4 102530 69
2005-08-04 10:54:52 51°16.279 2°54.397 7 25 17.4 102530 69
2005-08-04 10:54:57 51°16.279 2°54.394 7 23 17.4 102530 68
2005-08-04 10:55:02 51°16.278 2°54.389 7 21 17.4 102530 68
2005-08-04 10:55:07 51°16.277 2°54.386 6.6 24 17.4 102530 69
2005-08-04 10:55:12 51°16.276 2°54.381 6.9 23 17.4 102530 69
2005-08-04 10:55:17 51°16.275 2°54.377 6.8 25 17.3 102530 68
2005-08-04 10:55:22 51°16.275 2°54.374 7.1 26 17.3 102530 68
2005-08-04 10:55:26 51°16.274 2°54.371 7.2 28 17.3 102530 68
2005-08-04 10:55:31 51°16.274 2°54.368 6.9 30 17.3 102530 68
2005-08-04 10:55:37 51°16.273 2°54.364 6.7 26 17.3 102530 68
2005-08-04 10:55:42 51°16.272 2°54.362 6.6 23 17.3 102530 68
2005-08-04 10:55:46 51°16.272 2°54.36 7 31 17.3 102540 68
2005-08-04 10:55:51 51°16.271 2°54.358 6.6 32 17.3 102540 68
2005-08-04 10:55:57 51°16.27 2°54.355 6.4 33 17.3 102530 68
2005-08-04 10:56:02 51°16.269 2°54.354 5.8 30 17.3 102530 68
2005-08-04 10:56:07 51°16.268 2°54.352 5.9 32 17.3 102540 68
2005-08-04 10:56:12 51°16.267 2°54.35 6.7 35 17.3 102540 68
2005-08-04 10:56:17 51°16.267 2°54.349 6.6 33 17.3 102530 69
2005-08-04 10:56:22 51°16.266 2°54.349 6.8 36 17.3 102530 69
2005-08-04 10:56:26 51°16.265 2°54.348 6.7 38 17.3 102540 69
2005-08-04 10:56:32 51°16.264 2°54.345 6.6 39 17.3 102540 69
2005-08-04 10:56:37 51°16.263 2°54.343 7.1 35 17.2 102530 69
2005-08-04 10:56:42 51°16.262 2°54.34 7.3 34 17.2 102530 69
2005-08-04 10:56:46 51°16.262 2°54.338 7.2 30 17.2 102540 71
2005-08-04 10:56:52 51°16.261 2°54.335 6.8 33 17.2 102540 71
2005-08-04 10:56:56 51°16.261 2°54.333 6.5 30 17.2 102530 72
2005-08-04 10:57:02 51°16.26 2°54.331 6.5 32 17.2 102530 72
2005-08-04 10:57:06 51°16.26 2°54.329 6.3 31 17.2 102530 70
2005-08-04 10:57:12 51°16.259 2°54.327 6.5 24 17.2 102530 70
2005-08-04 10:57:17 51°16.259 2°54.326 6.8 23 17.2 102530 70
2005-08-04 10:57:22 51°16.259 2°54.325 7.1 20 17.2 102530 69
2005-08-04 10:57:27 51°16.259 2°54.323 7.1 23 17.2 102530 70
2005-08-04 10:57:32 51°16.258 2°54.322 6.7 22 17.2 102530 70
2005-08-04 10:57:37 51°16.258 2°54.321 6.8 21 17.2 102540 70
2005-08-04 10:57:42 51°16.258 2°54.321 6.2 21 17.2 102540 70
2005-08-04 10:57:47 51°16.257 2°54.32 6 24 17.2 102540 70
2005-08-04 10:57:51 51°16.257 2°54.32 6.4 22 17.2 102540 70
2005-08-04 10:57:57 51°16.257 2°54.319 6.5 23 17.1 102530 70
2005-08-04 10:58:02 51°16.257 2°54.319 6.9 23 17.1 102530 70
2005-08-04 10:58:07 51°16.257 2°54.319 6.5 23 17.2 102540 71
2005-08-04 10:58:12 51°16.257 2°54.318 6.6 21 17.2 102540 71
2005-08-04 10:58:14 51°16.257 2°54.318 6.6 19 17.2 102540 71
2005-08-04 10:58:22 51°16.257 2°54.319 6.5 23 17.2 102530 71
2005-08-04 10:58:27 51°16.257 2°54.319 6.1 26 17.2 102530 71
2005-08-04 10:58:32 51°16.258 2°54.319 5.9 19 17.2 102540 70
2005-08-04 10:58:37 51°16.258 2°54.32 5.8 29 17.2 102530 70
2005-08-04 10:58:42 51°16.258 2°54.32 6.4 26 17.2 102530 70
2005-08-04 10:58:46 51°16.258 2°54.321 6.6 26 17.3 102540 70
2005-08-04 10:58:51 51°16.257 2°54.322 5.8 25 17.3 102540 70
2005-08-04 10:58:57 51°16.257 2°54.323 5.6 26 17.3 102540 70
2005-08-04 10:59:02 51°16.256 2°54.324 6 28 17.3 102540 71
2005-08-04 10:59:07 51°16.256 2°54.325 6.4 28 17.3 102530 71
2005-08-04 10:59:12 51°16.256 2°54.326 6.9 28 17.3 102530 71
2005-08-04 10:59:17 51°16.256 2°54.327 6.9 28 17.2 102530 70
2005-08-04 10:59:22 51°16.256 2°54.33 6.3 25 17.2 102530 70
2005-08-04 10:59:27 51°16.256 2°54.331 6.6 30 17.2 102530 70
2005-08-04 10:59:32 51°16.256 2°54.333 6.1 26 17.2 102530 70
2005-08-04 10:59:36 51°16.256 2°54.334 5.9 27 17.2 102530 71
2005-08-04 10:59:42 51°16.256 2°54.336 6.8 -999 17.2 102530 71
2005-08-04 10:59:47 51°16.256 2°54.337 6.4 26 17.2 102540 71
2005-08-04 10:59:52 51°16.256 2°54.339 6.4 24 17.2 102540 71
2005-08-04 10:59:57 51°16.255 2°54.342 5.3 22 17.2 102540 70
2005-08-04 11:00:02 51°16.255 2°54.343 6 25 17.2 102540 70
2005-08-04 11:00:06 51°16.255 2°54.345 6.1 26 17.2 102540 71
2005-08-04 11:00:11 51°16.255 2°54.347 6.3 27 17.2 102540 71
2005-08-04 11:00:17 51°16.255 2°54.349 6 25 17.2 102540 72
2005-08-04 11:00:22 51°16.255 2°54.351 6.4 24 17.2 102540 72
2005-08-04 11:00:27 51°16.255 2°54.354 6 24 17.2 102530 72
2005-08-04 11:00:32 51°16.255 2°54.357 6.1 23 17.2 102530 72
2005-08-04 11:00:37 51°16.255 2°54.359 5.8 24 17.2 102530 72
2005-08-04 11:00:42 51°16.255 2°54.361 6.2 24 17.2 102530 72
2005-08-04 11:00:46 51°16.255 2°54.363 5.7 26 17.2 102530 71
2005-08-04 11:00:51 51°16.255 2°54.366 5.6 24 17.2 102530 71
2005-08-04 11:00:57 51°16.255 2°54.369 5.3 27 17.2 102530 71
2005-08-04 11:01:02 51°16.255 2°54.371 5.9 26 17.2 102530 71
2005-08-04 11:01:07 51°16.256 2°54.374 5.6 26 17.2 102540 71
2005-08-04 11:01:12 51°16.256 2°54.376 6.4 34 17.2 102540 71
2005-08-04 11:01:17 51°16.256 2°54.379 6.2 35 17.2 102540 71
2005-08-04 11:01:22 51°16.256 2°54.382 6.3 38 17.2 102540 71
2005-08-04 11:01:27 51°16.256 2°54.385 6 40 17.3 102540 71
2005-08-04 11:01:32 51°16.256 2°54.389 6.1 48 17.3 102540 71
2005-08-04 11:01:37 51°16.256 2°54.391 6.2 49 17.3 102530 72
2005-08-04 11:01:42 51°16.256 2°54.394 5.4 -999 17.3 102530 72
2005-08-04 11:01:46 51°16.256 2°54.397 5.8 54 17.3 102530 72
2005-08-04 11:01:52 51°16.256 2°54.401 5.6 52 17.3 102530 72
2005-08-04 11:01:57 51°16.256 2°54.404 6 54 17.2 102530 70
2005-08-04 11:02:02 51°16.256 2°54.407 5.8 63 17.2 102530 70
2005-08-04 11:02:07 51°16.256 2°54.41 5.9 64 17.2 102530 71
2005-08-04 11:02:11 51°16.256 2°54.413 6.6 66 17.2 102530 71
2005-08-04 11:02:15 51°16.256 2°54.416 6.2 69 17.2 102530 69
2005-08-04 11:02:22 51°16.256 2°54.42 5.8 71 17.2 102530 69
2005-08-04 11:02:27 51°16.256 2°54.424 5.5 72 17.2 102530 69
2005-08-04 11:02:31 51°16.256 2°54.426 5.9 75 17.2 102530 70
2005-08-04 11:02:37 51°16.256 2°54.43 5.6 77 17.2 102530 70
2005-08-04 11:02:42 51°16.256 2°54.434 5.9 -999 17.2 102530 70
2005-08-04 11:02:47 51°16.257 2°54.437 5.5 79 17.2 102530 69
2005-08-04 11:02:51 51°16.257 2°54.44 5 80 17.2 102530 69
2005-08-04 11:02:57 51°16.257 2°54.444 5.4 80 17.2 102530 69
2005-08-04 11:03:02 51°16.257 2°54.446 5.1 79 17.1 102530 69
2005-08-04 11:03:06 51°16.257 2°54.449 5.5 81 17.1 102530 68